Regional Weather Roundup
Issued by NWS

Home | Current Version | Previous Version | Text Only | Print | Product List | Glossary On
Versions: 1 2 3 4 5 6 7 8 9 10 11 12 13 14 15 16 17 18 19 20 21 22 23 24 25 26 27
000
ASPQ40 PGUM 252212
RWRPQ
WEATHER ROUNDUP FOR THE MARIANAS AND MICRONESIA
NATIONAL WEATHER SERVICE TIYAN GU
800 AM CHST SUN MAR 26 2017

GUZ001>004-252300-
MARIANA ISLANDS-

CITY           SKY/WX    TMP DP  RH WIND       PRES   REMARKS
GUAM AIRPORT   SUNNY     81  75  83 NE7       29.99R
ANDERSEN AFB   PTSUNNY   81  73  78 NE13      30.00R
ROTA AIRPORT   MOSUNNY   79  73  83 E10       29.99R
TINIAN AP      MOSUNNY   81  73  78 E7        29.98R
SAIPAN AP      MOSUNNY   82  73  74 E10       29.99R

$$

PMZ161-252300-
REPUBLIC OF PALAU-

CITY           SKY/WX    TMP DP  RH WIND       PRES   REMARKS
KOROR AP       PTSUNNY   81  75  83 NE9       29.87R
KOROR WSO      CLOUDY    81  77  89 NE3       29.88R

$$

PMZ171>174-252300-
FEDERATED STATES OF MICRONESIA-

CITY           SKY/WX    TMP DP  RH WIND       PRES   REMARKS
YAP AIRPORT    CLOUDY    81  77  89 VRB5      29.92R
CHUUK AP       CLOUDY    84  81  89 NE10      29.89R HX  98
POHNPEI AP     NOT AVBL
POHNPEI WSO    NOT AVBL
KOSRAE AP      NOT AVBL

$$

PMZ181-252300-
REPUBLIC OF THE MARSHALL ISLANDS-

CITY           SKY/WX    TMP DP  RH WIND       PRES   REMARKS
KWAJALEIN AP   PTSUNNY   86  73  66 E13       29.95R HX  93
MAJURO AP      PTSUNNY   82  75  78 E16       29.91R
MAJURO WSO     CLOUDY    86  75  70 NE15      29.89S HX  95

$$





USA.gov is the U.S. government's official web portal to all federal, state and local government web resources and services.